• In Kazakhstan
  • List of Countries
  • For 7 days
  • Water Temperature
  • Satellite Maps
  • Weather Map
  • News
  • Weather Widgets
  • user-avatar
    Login

    Hourly Weather Rezekne

    Today, 23 November, Thursday

    Time Temperature Precipitation Wind Pressure Humidity
    00:00 -2°C° 0 mm 1 mps 749 mmHg 89%
    01:00 -2°C° 0 mm 1 mps 749 mmHg 89%
    02:00 -2°C° 0 mm 1 mps 749 mmHg 88%
    03:00 -4°C° 0 mm 2 mps 749 mmHg 87%
    04:00 -3°C° 0 mm 2 mps 749 mmHg 86%
    05:00 -3°C° 0 mm 2 mps 749 mmHg 84%
    06:00 -4°C° 0 mm 3 mps 749 mmHg 82%
    07:00 -4°C° 0 mm 3 mps 749 mmHg 79%
    08:00 -4°C° 0 mm 3 mps 749 mmHg 80%
    09:00 -4°C° 0 mm 3 mps 749 mmHg 76%
    10:00 -3°C° 0 mm 4 mps 749 mmHg 71%
    11:00 -2°C° 0 mm 4 mps 749 mmHg 67%
    12:00 -2°C° 0 mm 4 mps 749 mmHg 65%
    13:00 -2°C° 0 mm 4 mps 749 mmHg 64%
    14:00 -2°C° 0 mm 4 mps 749 mmHg 62%
    15:00 -2°C° 0 mm 4 mps 748 mmHg 63%
    16:00 -2°C° 0 mm 4 mps 748 mmHg 64%
    17:00 -2°C° 0 mm 4 mps 748 mmHg 65%
    18:00 -2°C° 0 mm 5 mps 748 mmHg 66%
    19:00 -2°C° 0 mm 5 mps 748 mmHg 67%
    20:00 -2°C° 0 mm 5 mps 748 mmHg 68%
    21:00 -2°C° 0 mm 5 mps 748 mmHg 69%
    22:00 -2°C° 0 mm 5 mps 747 mmHg 71%
    23:00 -1°C° 0 mm 5 mps 747 mmHg 72%

    Tomorrow, 24 November, Friday

    Time Temperature Precipitation Wind Pressure Humidity
    00:00 -1°C° 0 mm 5 mps 747 mmHg 73%
    01:00 -1°C° 0 mm 5 mps 747 mmHg 74%
    02:00 -1°C° 0 mm 5 mps 747 mmHg 75%
    03:00 -1°C° 0 mm 5 mps 747 mmHg 77%
    04:00 -1°C° 0 mm 5 mps 747 mmHg 78%
    05:00 -2°C° 0 mm 5 mps 746 mmHg 79%
    06:00 -2°C° 0 mm 5 mps 747 mmHg 81%
    07:00 -2°C° 0 mm 5 mps 747 mmHg 82%
    08:00 -2°C° 0 mm 4 mps 747 mmHg 83%
    09:00 -1°C° 0 mm 4 mps 747 mmHg 83%
    10:00 -1°C° 0 mm 4 mps 747 mmHg 83%
    11:00 -1°C° 0 mm 4 mps 747 mmHg 83%
    12:00 -1°C° 0.2 mm 4 mps 747 mmHg 84%
    13:00 -1°C° 0.2 mm 4 mps 747 mmHg 85%
    14:00 -1°C° 0.2 mm 4 mps 747 mmHg 86%
    15:00 0°C° 0 mm 3 mps 747 mmHg 87%
    16:00 0°C° 0 mm 3 mps 747 mmHg 89%
    17:00 -1°C° 0 mm 3 mps 747 mmHg 90%
    18:00 0°C° 0 mm 3 mps 747 mmHg 91%
    19:00 0°C° 0 mm 3 mps 747 mmHg 91%
    20:00 0°C° 0 mm 3 mps 747 mmHg 91%
    21:00 -1°C° 0 mm 4 mps 746 mmHg 92%
    22:00 -1°C° 0 mm 4 mps 746 mmHg 92%
    23:00 -1°C° 0 mm 4 mps 746 mmHg 93%

    Day after tomorrow, 25 November, Saturday

    Time Temperature Precipitation Wind Pressure Humidity
    00:00 0°C° 0 mm 4 mps 746 mmHg 93%
    01:00 0°C° 0 mm 5 mps 745 mmHg 93%
    02:00 0°C° 0 mm 5 mps 745 mmHg 93%
    03:00 0°C° 0.2 mm 5 mps 745 mmHg 92%
    04:00 0°C° 0.2 mm 5 mps 744 mmHg 92%
    05:00 0°C° 0.2 mm 5 mps 744 mmHg 92%
    06:00 +1°C° 0.1 mm 5 mps 744 mmHg 92%
    07:00 +1°C° 0.1 mm 5 mps 744 mmHg 93%
    08:00 +1°C° 0.1 mm 4 mps 744 mmHg 93%
    09:00 +3°C° 0 mm 4 mps 744 mmHg 92%
    10:00 +3°C° 0 mm 4 mps 745 mmHg 92%
    11:00 +3°C° 0 mm 4 mps 745 mmHg 91%
    12:00 +4°C° 0 mm 3 mps 746 mmHg 90%
    13:00 +5°C° 0 mm 2 mps 746 mmHg 90%
    14:00 +5°C° 0 mm 2 mps 747 mmHg 89%
    15:00 +5°C° 0 mm 1 mps 747 mmHg 90%
    16:00 +4°C° 0 mm 1 mps 747 mmHg 91%
    17:00 +2°C° 0 mm 0 mps 748 mmHg 93%
    18:00 +3°C° 0 mm 1 mps 748 mmHg 93%
    19:00 +3°C° 0 mm 1 mps 748 mmHg 93%
    20:00 +3°C° 0 mm 1 mps 748 mmHg 93%
    21:00 +2°C° 0 mm 2 mps 747 mmHg 93%
    22:00 +2°C° 0 mm 2 mps 747 mmHg 94%
    23:00 +1°C° 0 mm 3 mps 747 mmHg 94%

    26 November, Sunday

    Time Temperature Precipitation Wind Pressure Humidity
    00:00 +1°C° 0.8 mm 3 mps 746 mmHg 93%
    01:00 0°C° 0.8 mm 4 mps 746 mmHg 93%
    02:00 +1°C° 0.8 mm 4 mps 745 mmHg 92%
    03:00 +1°C° 0.5 mm 5 mps 744 mmHg 91%
    04:00 +1°C° 0.5 mm 5 mps 743 mmHg 90%
    05:00 +1°C° 0.5 mm 5 mps 742 mmHg 89%
    06:00 +1°C° 0 mm 5 mps 742 mmHg 88%
    07:00 +1°C° 0 mm 6 mps 741 mmHg 87%
    08:00 +1°C° 0 mm 6 mps 741 mmHg 86%
    09:00 +2°C° 0.5 mm 6 mps 740 mmHg 86%
    10:00 +2°C° 0.5 mm 6 mps 740 mmHg 86%
    11:00 +3°C° 0.5 mm 6 mps 739 mmHg 85%
    12:00 +3°C° 0.3 mm 6 mps 739 mmHg 86%
    13:00 +3°C° 0.3 mm 6 mps 739 mmHg 86%
    14:00 +4°C° 0.3 mm 6 mps 738 mmHg 86%
    15:00 +5°C° 0.2 mm 5 mps 738 mmHg 87%
    16:00 +5°C° 0.2 mm 5 mps 738 mmHg 87%
    17:00 +5°C° 0.2 mm 5 mps 738 mmHg 87%
    18:00 +5°C° 0.1 mm 5 mps 739 mmHg 85%
    19:00 +5°C° 0.1 mm 5 mps 739 mmHg 84%
    20:00 +3°C° 0.1 mm 5 mps 739 mmHg 82%
    21:00 +3°C° 0 mm 5 mps 740 mmHg 82%
    22:00 +3°C° 0 mm 5 mps 741 mmHg 82%
    23:00 +2°C° 0 mm 5 mps 741 mmHg 83%

    27 November, Monday

    Time Temperature Precipitation Wind Pressure Humidity
    00:00 +3°C° 0 mm 4 mps 742 mmHg 83%
    01:00 +1°C° 0 mm 4 mps 743 mmHg 83%
    02:00 +2°C° 0 mm 3 mps 743 mmHg 83%
    03:00 +2°C° 0 mm 3 mps 744 mmHg 85%
    04:00 +1°C° 0 mm 3 mps 744 mmHg 86%
    05:00 +1°C° 0 mm 3 mps 745 mmHg 88%
    06:00 +1°C° 0 mm 3 mps 745 mmHg 90%
    07:00 0°C° 0 mm 3 mps 745 mmHg 91%
    08:00 0°C° 0 mm 3 mps 746 mmHg 93%
    09:00 0°C° 0 mm 3 mps 746 mmHg 90%
    10:00 0°C° 0 mm 3 mps 746 mmHg 87%
    11:00 0°C° 0 mm 4 mps 747 mmHg 84%
    12:00 0°C° 0 mm 4 mps 747 mmHg 83%
    13:00 0°C° 0 mm 4 mps 747 mmHg 82%
    14:00 0°C° 0 mm 4 mps 747 mmHg 80%
    15:00 +1°C° 0 mm 3 mps 747 mmHg 82%
    16:00 0°C° 0 mm 3 mps 747 mmHg 83%
    17:00 0°C° 0 mm 3 mps 747 mmHg 85%
    18:00 0°C° 0 mm 3 mps 747 mmHg 85%
    19:00 0°C° 0 mm 3 mps 748 mmHg 85%
    20:00 0°C° 0 mm 3 mps 748 mmHg 86%
    21:00 -1°C° 0 mm 3 mps 748 mmHg 87%
    22:00 -1°C° 0 mm 3 mps 748 mmHg 88%
    23:00 -2°C° 0 mm 3 mps 748 mmHg 89%

    28 November, Tuesday

    Time Temperature Precipitation Wind Pressure Humidity
    00:00 -2°C° 0 mm 3 mps 748 mmHg 89%
    01:00 -2°C° 0 mm 3 mps 748 mmHg 89%
    02:00 -2°C° 0 mm 2 mps 748 mmHg 89%
    03:00 -2°C° 0 mm 2 mps 748 mmHg 89%
    04:00 -2°C° 0 mm 2 mps 748 mmHg 90%
    05:00 -2°C° 0 mm 2 mps 748 mmHg 90%
    06:00 -2°C° 0 mm 2 mps 748 mmHg 91%
    07:00 -2°C° 0 mm 2 mps 748 mmHg 91%
    08:00 -3°C° 0 mm 2 mps 748 mmHg 91%
    09:00 -2°C° 0 mm 2 mps 748 mmHg 88%
    10:00 -1°C° 0 mm 2 mps 749 mmHg 85%
    11:00 -1°C° 0 mm 2 mps 749 mmHg 81%
    12:00 -1°C° 0 mm 2 mps 748 mmHg 80%
    13:00 +1°C° 0 mm 2 mps 748 mmHg 79%
    14:00 +1°C° 0 mm 2 mps 748 mmHg 78%
    15:00 -1°C° 0 mm 2 mps 748 mmHg 81%
    16:00 -1°C° 0 mm 2 mps 748 mmHg 85%
    17:00 -2°C° 0 mm 2 mps 748 mmHg 89%
    18:00 -2°C° 0.1 mm 2 mps 748 mmHg 89%
    19:00 -2°C° 0.1 mm 2 mps 747 mmHg 89%
    20:00 -2°C° 0.1 mm 2 mps 747 mmHg 90%
    21:00 -2°C° 0.2 mm 2 mps 747 mmHg 90%
    22:00 -2°C° 0.2 mm 2 mps 747 mmHg 90%
    23:00 -1°C° 0.2 mm 2 mps 747 mmHg 91%
    Show more